Weather Roundup
Issued by NWS

Home | Current Version | Previous Version | Text Only | Print | Product List | Glossary On
Versions: 1 2 3 4 5 6 7 8 9 10 11 12 13 14 15 16 17 18 19 20 21 22 23 24 25 26 27 28 29 30 31 32 33 34 35 36 37 38 39 40 41 42 43 44 45 46 47 48 49 50
000
NZUS93 KARX 192359
HRRWXR

CURRENT HOURLY OBSERVATIONS ACROSS
MUCH OF THE UPPER MISSISSIPPI VALLEY
NATIONAL WEATHER SERVICE LA CROSSE WI
600 PM CST MON FEB 19 2018


...SOUTHEAST MINNESOTA...


CITY           SKY/WX    TMP DP  RH WIND       PRES   REMARKS
ROCHESTER      FRZ RAIN  26  25  96 NE18      29.76R FOG     WCI  13
ROCHESTER/MAYO CLOUDY    26  26  99 N6        29.78R WCI  20
WINONA         CLOUDY    32  30  93 NE7       29.77R FOG     WCI  26
AUSTIN         LGT SNOW  27  25  93 N7        29.77R WCI  19
ALBERT LEA     CLOUDY    25  25 100 N7        29.79R FOG     WCI  17
DODGE CENTER   LGT SNOW  23  21  93 N13       29.78R WCI  11
PRESTON        FOG       30  29  96 N8        29.74R VSB 3/4 WCI  23
OWATONNA       LGT SNOW  25  23  93 N6        29.81R WCI  18
FARIBAULT      MIX PCPN  23  21  93 N9G16     29.83F WCI  13
$$

...ELSEWHERE IN MINNESOTA...


CITY           SKY/WX    TMP DP  RH WIND       PRES   REMARKS
MINNEAPOLIS    FRZ DRZL  21  20  96 NE14      29.89R FOG     WCI   8
INTNL FALLS    CLOUDY    10  -1  61 N8        30.16R WCI  -2
DULUTH         LGT SNOW  14   9  80 NE10      30.01R VSB 1   WCI   1
RED WING       CLOUDY    25  19  80 NE8       29.85R WCI  16
REDWOOD FALLS  CLOUDY    16  14  92 N14G23    29.92R FOG     WCI   2
MANKATO        MIX PCPN  22  20  92 MISG      29.86R FOG
WORTHINGTON    FLURRIES  15  12  88 N18G24    29.86R WCI  -2
FAIRMONT       CLOUDY    22  20  92 N15G21    29.84R FOG     WCI   9
$$

...SOUTHWEST WISCONSIN...


CITY           SKY/WX    TMP DP  RH WIND       PRES   REMARKS
LA CROSSE      CLOUDY    37  34  89 NE10      29.76S FOG     WCI  30
PRAIRIE DU CHI CLOUDY    38  37  94 E5        29.71S WCI  35
BOSCOBEL       CLOUDY    39  37  92 VRB6      29.74R WCI  35
LONE ROCK      CLOUDY    37  36  96 E13       29.76S FOG     WCI  29
PLATTEVILLE    CLOUDY    37  37 100 E15       29.71S WCI  28
FORT MC COY    CLOUDY    33  33  96 E9G20     29.78R FOG     WCI  26
CAMP DOUGLAS   CLOUDY    32  31  98 E13       29.79R FOG     WCI  22
MAUSTON-NEW LI CLOUDY    32  31  94 E9G20     29.79R FOG     WCI  25
VIROQUA        CLOUDY    35  35 100 E16G24    29.72R VSB 1   WCI  25
WIS DELLS      LGT RAIN  34  32  95 E16       29.77R WCI  23
$$

...ELSEWHERE IN WISCONSIN...


CITY           SKY/WX    TMP DP  RH WIND       PRES   REMARKS
MILWAUKEE      HVY RAIN  38  37  97 N12       29.82R VSB 1/2 WCI  30
MADISON        HVY RAIN  35  34  96 E12       29.78S FOG     WCI  27
GREEN BAY      FRZ RAIN  28  25  88 NE23G33   29.89F FOG     WCI  14
EAU CLAIRE     NOT AVBL
BLACK RVR FLS  CLOUDY    32  32  99 NE12      29.79R FOG     WCI  23
MEDFORD        CLOUDY    22  20  91 E16G22    29.82R FOG     WCI   8
WAUSAU         FRZ RAIN  25  22  88 E14       29.84R WCI  13
WIS RAPIDS     CLOUDY    27  23  85 E16G23    29.83S WCI  15
MARSHFIELD     CLOUDY    27  25  92 E17G23    29.81R FOG     WCI  14
RICE LAKE      MIX PCPN  21  18  89 N12       29.90R WCI   9
$$

...NORTHEAST IOWA...


CITY           SKY/WX    TMP DP  RH WIND       PRES   REMARKS
WATERLOO       FOG       35  35 100 W5        29.71R VSB 1/2 WCI  31
DUBUQUE        FOG       37  36  96 NE5       29.71R VSB 1/2 WCI  33
DECORAH        FOG       36  36 100 E6        29.70R VSB 3/4 WCI  31
MASON CITY     CLOUDY    29  27  92 N18       29.76R FOG     WCI  16
CHARLES CITY   FOG       34  34 100 N8        29.72R VSB 1   WCI  27
OELWEIN        FOG       36  36 100 E3        29.70R VSB<1/4
$$

...ELSEWHERE IN IOWA...


CITY           SKY/WX    TMP DP  RH WIND       PRES   REMARKS
DES MOINES     FRZ DRZL  31  29  92 NW12      29.78R FOG     WCI  22
IOWA CITY      LGT RAIN  47  50 100 W9        29.75R
FORT DODGE     CLOUDY    25  24  96 N12       29.78F FOG     WCI  14
MARSHALLTOWN   FOG       34  34 100 W10       29.74R VSB 3/4 WCI  26
CEDAR RAPIDS   LGT RAIN  44  43  96 SW8       29.71R
$$

...NORTHERN ILLINOIS...


CITY           SKY/WX    TMP DP  RH WIND       PRES   REMARKS
CHICAGO-OHARE  LGT RAIN  57  54  89 S21G28    29.80R
CHICAGO-MIDWAY LGT RAIN  57  55  93 S15G22    29.82S
MOLINE         LGT RAIN  60  57  89 S18G25    29.71R
ROCKFORD       LGT RAIN  44  44 100 S10       29.78R VSB 1/8
PEORIA         LGT RAIN  59  58  96 S16       29.80F
$$

NOTE: "FAIR" INDICATES FEW OR NO CLOUDS BELOW 12,000 FEET WITH NO
SIGNIFICANT WEATHER AND/OR OBSTRUCTIONS TO VISIBILITY. WIND
SPEEDS ARE IN MILES-PER-HOUR.




USA.gov is the U.S. government's official web portal to all federal, state and local government web resources and services.